{"data":{"norad_id":59424,"intl_designator":"2024-065D","name":"STARLINK-11083 [DTC]","alt_names":[],"object_type":"PAYLOAD","status":"ACTIVE","operator":null,"country":"US","launch_date":"2024-04-07","launch_site_code":"AFWTR","launch_vehicle":null,"mission":null,"orbit_class":"UNKNOWN","rcs_meters":null,"size_class":null,"mass_kg":null,"dimensions":null,"purposes":["comms"],"wikipedia_slug":null,"has_3d_model":false,"image_url":null,"decayed_at":null,"tle_current":{"epoch":"2026-05-24T23:25:21.286848Z","epoch_age_seconds":73083,"freshness":"FRESH","line1":"1 59424U 24065D   26144.97594082  .00000502  00000+0  90008-5 0  9990","line2":"2 59424  53.1576  77.8940 0000774  53.1144 306.9945 15.69703914123450","mean_motion":15.69703914,"eccentricity":7.74e-5,"inclination_deg":53.1576,"raan_deg":77.894,"arg_perigee_deg":53.1144,"mean_anomaly_deg":306.9945,"bstar":9.0008e-6,"rev_number":12345,"period_min":91.737045894886,"perigee_km":359.22265427618,"apogee_km":360.26567828072,"semimajor_km":6737.8811662785,"source":"CELESTRAK","updated_at":"2026-05-25T13:38:18.944383Z"}}}